TimeEST,TemperatureF,Dew PointF,Humidity,Sea Level PressureIn,VisibilityMPH,Wind Direction,Wind SpeedMPH,Gust SpeedMPH,PrecipitationIn,Events,Conditions,WindDirDegrees,DateUTC
12:53 AM,55.0,39.9,57,29.84,10.0,SSW,15.0,23.0,N/A,,Overcast,210,2012-11-23 05:53:00
1:46 AM,53.6,44.6,72,29.84,6.0,SW,13.8,27.6,0.01,Rain,Rain,230,2012-11-23 06:46:00
1:53 AM,52.0,46.0,80,29.84,5.0,SW,16.1,24.2,0.03,Rain,Rain,220,2012-11-23 06:53:00
2:22 AM,51.8,48.2,88,29.83,6.0,SW,16.1,26.5,0.03,Rain,Rain,220,2012-11-23 07:22:00
2:53 AM,52.0,48.9,89,29.82,6.0,SW,13.8,21.9,0.07,Rain,Light Rain,220,2012-11-23 07:53:00
3:53 AM,52.0,50.0,93,29.81,7.0,SW,12.7,20.7,0.01,,Overcast,220,2012-11-23 08:53:00
4:12 AM,53.6,50.0,88,29.81,8.0,WSW,10.4,19.6,N/A,,Overcast,240,2012-11-23 09:12:00
4:41 AM,53.6,48.2,82,29.80,8.0,WSW,9.2,19.6,N/A,,Mostly Cloudy,240,2012-11-23 09:41:00
4:53 AM,53.1,48.9,86,29.81,9.0,WSW,11.5,20.7,N/A,,Overcast,250,2012-11-23 09:53:00
5:11 AM,51.8,44.6,76,29.82,10.0,West,13.8,28.8,N/A,,Mostly Cloudy,260,2012-11-23 10:11:00
5:18 AM,50.0,42.8,76,29.82,10.0,West,11.5,23.0,N/A,,Partly Cloudy,260,2012-11-23 10:18:00
5:53 AM,46.0,39.9,79,29.85,10.0,West,11.5,20.7,N/A,,Partly Cloudy,260,2012-11-23 10:53:00
6:18 AM,44.6,37.4,76,29.85,10.0,WSW,10.4,19.6,N/A,,Mostly Cloudy,250,2012-11-23 11:18:00
6:48 AM,42.8,35.6,76,29.86,10.0,West,10.4,21.9,N/A,,Partly Cloudy,270,2012-11-23 11:48:00
6:53 AM,42.1,35.1,76,29.87,10.0,West,10.4,21.9,N/A,,Scattered Clouds,260,2012-11-23 11:53:00
7:03 AM,42.8,35.6,76,29.87,10.0,WSW,10.4,17.3,N/A,,Mostly Cloudy,250,2012-11-23 12:03:00
7:53 AM,39.9,32.0,73,29.89,10.0,WSW,11.5,18.4,N/A,,Overcast,250,2012-11-23 12:53:00
8:53 AM,39.0,30.9,73,29.90,10.0,West,12.7,23.0,N/A,,Overcast,260,2012-11-23 13:53:00
9:53 AM,39.0,32.0,76,29.90,10.0,WSW,11.5,18.4,N/A,,Overcast,250,2012-11-23 14:53:00
10:53 AM,37.9,28.9,70,29.91,10.0,West,8.1,21.9,N/A,,Overcast,260,2012-11-23 15:53:00
11:41 AM,37.4,28.4,70,29.90,10.0,WSW,12.7,25.3,N/A,,Overcast,250,2012-11-23 16:41:00
11:53 AM,37.9,28.0,68,29.91,10.0,WSW,11.5,29.9,N/A,,Overcast,250,2012-11-23 16:53:00
12:53 PM,37.0,25.0,62,29.91,10.0,West,10.4,29.9,N/A,,Overcast,260,2012-11-23 17:53:00
1:39 PM,33.8,24.8,70,29.92,10.0,West,11.5,32.2,N/A,,Overcast,280,2012-11-23 18:39:00
1:53 PM,34.0,23.0,64,29.94,7.0,West,11.5,27.6,0.00,Snow,Light Snow,280,2012-11-23 18:53:00
2:10 PM,33.8,23.0,65,29.94,10.0,West,9.2,27.6,N/A,,Overcast,280,2012-11-23 19:10:00
2:53 PM,33.1,21.9,64,29.97,10.0,West,9.2,17.3,0.00,,Overcast,270,2012-11-23 19:53:00
3:53 PM,33.1,21.9,64,30.01,10.0,West,11.5,23.0,N/A,,Overcast,270,2012-11-23 20:53:00
4:53 PM,32.0,21.0,64,30.04,9.0,West,12.7,21.9,0.00,Snow,Light Snow,260,2012-11-23 21:53:00
5:53 PM,30.9,21.9,69,30.07,10.0,WSW,11.5,18.4,0.00,,Overcast,250,2012-11-23 22:53:00
6:53 PM,30.9,23.0,72,30.09,10.0,WSW,8.1,-,N/A,,Overcast,250,2012-11-23 23:53:00
7:53 PM,32.0,23.0,69,30.10,10.0,WSW,6.9,-,N/A,,Overcast,250,2012-11-24 00:53:00
8:53 PM,33.1,21.0,61,30.11,10.0,West,8.1,16.1,N/A,,Overcast,270,2012-11-24 01:53:00
9:53 PM,33.1,21.9,64,30.11,10.0,West,9.2,-,N/A,,Overcast,270,2012-11-24 02:53:00
10:53 PM,32.0,21.9,66,30.11,10.0,WSW,8.1,-,N/A,,Overcast,250,2012-11-24 03:53:00
11:53 PM,32.0,21.9,66,30.11,10.0,WSW,9.2,-,N/A,,Overcast,250,2012-11-24 04:53:00